Home   Weather   Casper   Past weeks

Flag for USA Past Weather in Casper, Wyoming, USA — Yesterday and Last 2 Weeks

Now
27 °F

Overcast.


Feels Like: 15 °F
Forecast: 21 / 34 °F
Wind: 15 mph from Southwest

Location: Natrona County International Airport

Current Time: Jan 22, 2017 at 5:37:13 am

Latest Report: Jan 22, 2017 at 4:53 am


Visibility: 10 mi

Pressure: 29.89 "Hg (24.51 "Hg at 1569m altitude)

Humidity: 69%

Dew Point: 18 °F

Location of CasperLocation

Past Weather in Casper — Graph

°F

Casper Temperature Yesterday

Maximum temperature yesterday: 35 °F (at 2:53 pm)
Minimum temperature yesterday: 16 °F (at 7:53 am)
Average temperature yesterday: 25 °F

High & Low Weather Summary for the Past Weeks

 TemperatureHumidityPressure
High42 °F (Jan 9, 1:53 pm)96% (Jan 20, 7:35 am)30.46 "Hg (Jan 20, 7:35 am)
Low2 °F (Jan 11, 5:53 am)34% (Jan 17, 12:53 pm)29.40 "Hg (Jan 21, 2:53 am)
Average26 °F69%29.93 "Hg
* Reported Jan 7 3:53 am — Jan 22 3:53 am, Casper, Weather by CustomWeather, © 2017

Note: Actual official high and low records may vary slightly from our data, if they occured in-between our weather recording intervals... More about our weather records

Advertising

Casper Weather History for the Previous 24 Hours

Scroll right to see more
 ConditionsComfort  
Time TempWeatherWind HumidityBarometerVisibility
3:53 am
Sun, Jan 22
24 °FOvercast.16 mph75%29.86 "Hg10 mi
2:53 am27 °FOvercast.14 mph69%29.83 "Hg10 mi
1:53 am25 °FPassing clouds.16 mph72%29.82 "Hg10 mi
12:53 am24 °FClear.13 mph75%29.80 "Hg10 mi
11:53 pm
Sat, Jan 21
26 °FPassing clouds.12 mph74%29.78 "Hg10 mi
10:53 pm27 °FOvercast.10 mph72%29.75 "Hg10 mi
9:53 pm24 °FPassing clouds.8 mph81%29.75 "Hg10 mi
8:53 pm21 °FPassing clouds.9 mph78%29.76 "Hg10 mi
7:53 pm21 °FClear.8 mph78%29.75 "Hg10 mi
6:53 pm23 °FClear.7 mph78%29.70 "Hg10 mi
5:53 pm26 °FClear.9 mph77%29.64 "Hg10 mi
4:53 pm31 °FSunny.7 mph69%29.58 "Hg10 mi
3:53 pm35 °FSunny.10 mph59%29.53 "Hg10 mi
2:53 pm35 °FSunny.9 mph61%29.49 "Hg10 mi
1:53 pm33 °FScattered clouds.10 mph63%29.46 "Hg10 mi
12:53 pm33 °FSunny.8 mph61%29.44 "Hg10 mi
11:53 am33 °FSunny.9 mph61%29.44 "Hg10 mi
10:53 am32 °FSunny.6 mph64%29.45 "Hg10 mi
9:53 am29 °FSunny.8 mph69%29.46 "Hg10 mi
8:53 am20 °FSunny.9 mph85%29.46 "Hg10 mi
7:53 am16 °FSunny.7 mph87%29.47 "Hg10 mi
6:53 am19 °FClear.8 mph85%29.44 "Hg10 mi
5:53 am19 °FClear.9 mph85%29.42 "Hg10 mi
Weather by CustomWeather, © 2017

See weather overviewHow to use our weather pages